Weather History for KOVS - July, 2013

Change the Weather History Date:

Thursday, July 11, 2013

  Actual Average (KPDC) Record (KPDC)
Temperature  
Mean Temperature 70 °F -  
Max Temperature 84 °F 86 °F 98 °F (1976)
Min Temperature 57 °F 62 °F 49 °F (1975)
Cooling Degree Days 6    
Growing Degree Days 20 (Base 50)    
Moisture  
Dew Point 58 °F    
Average Humidity 80    
Maximum Humidity 97    
Minimum Humidity 39    
Precipitation  
Precipitation 0.00 in - - ()
Sea Level Pressure  
Sea Level Pressure 30.09 in    
Wind  
Wind Speed 0 mph (SSE)    
Max Wind Speed 6 mph    
Max Gust Speed -    
Visibility 5 miles    
Events Fog    
Averages and records for this station are not official NWS values.
T = Trace of Precipitation, MM = Missing Value Source: NWS Daily Summary

Daily Weather History Graph

Daily Weather History Graph

Search for Another Location

Airport or City:

Trip Planner

Search our weather history database for the weather conditions in past years. The results will help you decide how hot, cold, wet, or windy it might be!

Date:

Astronomy

Jul. 11, 2013 Rise Set
Actual Time 5:33 AM CDT 8:42 PM CDT
Civil Twilight 4:59 AM CDT 9:17 PM CDT
Nautical Twilight 4:14 AM CDT 10:01 PM CDT
Astronomical Twilight 3:20 AM CDT 10:54 PM CDT
Moon 8:58 AM CDT (7/11) 10:15 PM CDT (7/11)
Length of Visible Light 16h 18m
Length of Day
15h 08m
Waxing Crescent, 11% of the Moon is Illuminated
Jul 11
Waxing Crescent
Jul 15
First Quarter
Jul 22
Full
Jul 29
Last Quarter
Aug 6
New

Hourly Weather History & Observations

Time (CDT) Temp. Heat Index Dew Point Humidity Pressure Visibility Wind Dir Wind Speed Gust Speed Precip Events Conditions
12:28 AM 59.0 °F - 57.9 °F 96% 30.06 in 1.8 mi Calm Calm - N/A   Clear
12:38 AM 59.0 °F - 57.0 °F 93% 30.06 in 3.0 mi Calm Calm - N/A   Clear
12:53 AM 59.0 °F - 57.9 °F 96% 30.06 in 3.0 mi Calm Calm - N/A   Clear
1:27 AM 57.9 °F - 55.9 °F 93% 30.08 in 2.0 mi Calm Calm - N/A   Clear
1:32 AM 57.0 °F - 55.9 °F 96% 30.08 in 1.0 mi Calm Calm - N/A   Clear
1:42 AM 57.9 °F - 55.9 °F 93% 30.08 in 2.0 mi Calm Calm - N/A   Clear
1:51 AM 57.2 °F - 55.4 °F 94% 30.08 in 6.0 mi Calm Calm - N/A   Clear
1:53 AM 57.9 °F - 55.9 °F 93% 30.08 in 6.0 mi Calm Calm - N/A   Clear
2:30 AM 57.9 °F - 55.9 °F 93% 30.08 in 2.5 mi Calm Calm - N/A   Clear
2:46 AM 57.0 °F - 55.9 °F 96% 30.09 in 3.0 mi Calm Calm - N/A   Partly Cloudy
2:53 AM 57.0 °F - 55.9 °F 96% 30.09 in 4.0 mi Calm Calm - N/A   Mostly Cloudy
2:57 AM 57.0 °F - 55.9 °F 96% 30.09 in 1.8 mi Calm Calm - N/A   Mostly Cloudy
3:12 AM 57.9 °F - 57.0 °F 97% 30.09 in 0.8 mi Calm Calm - N/A   Overcast
3:53 AM 60.1 °F - 59.0 °F 96% 30.09 in 0.2 mi Calm Calm - N/A Fog Fog
4:53 AM 59.0 °F - 57.9 °F 96% 30.10 in 0.2 mi Calm Calm - N/A Fog Fog
5:53 AM 60.1 °F - 59.0 °F 96% 30.11 in 0.2 mi Calm Calm - N/A Fog Fog
6:53 AM 60.1 °F - 59.0 °F 96% 30.12 in 0.2 mi Calm Calm - N/A Fog Fog
7:53 AM 61.0 °F - 60.1 °F 97% 30.13 in 1.2 mi Calm Calm - N/A   Overcast
8:10 AM 62.1 °F - 61.0 °F 96% 30.13 in 3.0 mi Calm Calm - N/A   Overcast
8:33 AM 63.0 °F - 61.0 °F 93% 30.13 in 8.0 mi Calm Calm - N/A   Scattered Clouds
8:53 AM 66.9 °F - 62.1 °F 84% 30.13 in 9.0 mi Calm Calm - N/A   Clear
9:53 AM 75.9 °F - 62.1 °F 62% 30.12 in 10.0 mi Calm Calm - N/A   Clear
10:53 AM 79.0 °F - 59.0 °F 50% 30.13 in 10.0 mi SW 4.6 mph - N/A   Clear
11:53 AM 80.1 °F 80.4 °F 57.0 °F 45% 30.13 in 10.0 mi Calm Calm - N/A   Clear
12:53 PM 82.0 °F 81.6 °F 55.9 °F 41% 30.11 in 9.0 mi Calm Calm - N/A   Clear
1:53 PM 82.9 °F 82.1 °F 55.9 °F 39% 30.10 in 9.0 mi Calm Calm - N/A   Scattered Clouds
2:53 PM 82.0 °F 81.6 °F 55.9 °F 41% 30.09 in 9.0 mi ENE 5.8 mph - N/A   Scattered Clouds
3:53 PM 84.0 °F 83.3 °F 57.0 °F 40% 30.08 in 10.0 mi SSE 4.6 mph - N/A   Partly Cloudy
4:53 PM 84.0 °F 83.5 °F 57.9 °F 41% 30.08 in 10.0 mi Variable 4.6 mph - N/A   Partly Cloudy
5:53 PM 82.9 °F 82.6 °F 57.9 °F 42% 30.07 in 10.0 mi Variable 3.5 mph - N/A   Clear
6:53 PM 81.0 °F 81.1 °F 57.9 °F 45% 30.07 in 10.0 mi Variable 3.5 mph - N/A   Clear
7:53 PM 78.1 °F - 62.1 °F 58% 30.06 in 10.0 mi Calm Calm - N/A   Clear
8:53 PM 71.1 °F - 62.1 °F 73% 30.06 in 10.0 mi Calm Calm - N/A   Clear
9:53 PM 66.9 °F - 63.0 °F 87% 30.08 in 9.0 mi Calm Calm - N/A   Clear
10:53 PM 64.0 °F - 62.1 °F 93% 30.08 in 8.0 mi Calm Calm - N/A   Clear
11:14 PM 63.0 °F - 61.0 °F 93% 30.09 in 1.8 mi Calm Calm - N/A   Clear
11:19 PM 63.0 °F - 62.1 °F 97% 30.09 in 3.0 mi Calm Calm - N/A   Clear
11:53 PM 62.1 °F - 60.1 °F 93% 30.09 in 5.0 mi Calm Calm - N/A   Clear
11:56 PM 61.0 °F - 60.1 °F 97% 30.09 in 1.0 mi Calm Calm - N/A   Clear